Regional Weather Roundup
Issued by NWS

Home | Current Version | Previous Version | Text Only | Print | Product List | Glossary On
Versions: 1 2 3 4 5 6 7 8 9 10 11 12 13 14 15 16 17 18 19 20 21 22 23 24 25 26 27 28 29 30 31 32 33 34 35 36 37 38 39 40 41 42 43 44 45 46 47 48 49 50
000
ASUS43 KMKX 251021
RWRWI

WISCONSIN REGIONAL WEATHER ROUNDUP
NATIONAL WEATHER SERVICE MILWAUKEE/SULLIVAN WI
500 AM CDT SUN JUN 25 2017

NOTE: "FAIR" INDICATES FEW OR NO CLOUDS BELOW 12,000 FEET WITH NO
SIGNIFICANT WEATHER AND/OR OBSTRUCTIONS TO VISIBILITY.

WIZ001-002-006>008-014>016-023>028-251100-
NORTHWEST WISCONSIN

CITY           SKY/WX    TMP DP  RH WIND       PRES   REMARKS
SUPERIOR ARPT  NOT AVBL
ASHLAND        CLOUDY    52  50  93 W6        29.98S
HAYWARD        CLOUDY    51  48  89 CALM      30.02R
SIREN          CLEAR     48  47  96 W6        30.04S
CUMBERLAND     MOCLDY    48  46  93 W9        30.03S
RICE LAKE      MOCLDY    50  48  93 W6        30.05R
CHETEK         MOCLDY    50  49  97 NW3       30.03S
LADYSMITH      CLEAR     51  49  93 W7        30.02S
EAU CLAIRE     PTCLDY    50  48  93 W3        30.03R
MENOMONIE      PTCLDY    51  49  92 W6        30.05S
NEW RICHMOND   CLOUDY    53  47  80 W9        30.06R
OSCEOLA        CLOUDY    54  48  82 W5        30.09S
$$

WIZ003>005-009-010-017-018-251100-
NORTH CENTRAL WISCONSIN

CITY           SKY/WX    TMP DP  RH WIND       PRES   REMARKS
MANITOWISH WTR CLOUDY    51  51 100 CALM      29.97S
ARBOR VITAE    CLOUDY    52  50  93 NW5       29.96S
WOODRUFF       CLOUDY    52  50  93 NW5       29.96S
RHINELANDER    CLOUDY    51  51 100 W3        29.98R
EAGLE RIVER    CLOUDY    51  51 100 CALM      29.96R
LAND O LAKES   CLOUDY    51  51  98 NW3       29.98R
PHILLIPS       CLEAR     46  46 100 CALM      29.99S
TOMAHAWK       NOT AVBL
MEDFORD        CLEAR     47  46  97 W6        30.00R
MERRILL        CLEAR     47  47 100 W3        29.99R
$$

WIZ029-030-035-036-043>047-251100-
CENTRAL WISCONSIN

CITY           SKY/WX    TMP DP  RH WIND       PRES   REMARKS
WAUSAU         CLEAR     49  47  93 W10       29.97R
MOSINEE        CLEAR     46  46 100 W10       30.00S
MARSHFIELD     CLEAR     49  45  86 W7        30.00S
STEVENS POINT  PTCLDY    48  47  95 W3        30.00S
WAUPACA        PTCLDY    52  49  90 W8        29.99S
WAUTOMA        CLEAR     50  47  89 W7        30.02R
WISC RAPIDS    CLEAR     48  45  89 W7        30.02S
CAMP DOUGLAS   CLEAR     47  46  95 W8        30.04R
$$

WIZ011>013-019>022-031-037>040-048>050-251100-
NORTHEAST WISCONSIN

CITY           SKY/WX    TMP DP  RH WIND       PRES   REMARKS
ANTIGO         CLOUDY    49  49  99 NW8       29.96R
SHAWANO        CLOUDY    54  51  88 W7        29.94S
OCONTO         CLOUDY    52  51  97 SW6       29.92S
STURGEON BAY     N/A     53  52  96 CALM        N/A
GREEN BAY      LGT RAIN  53  52  96 SW8       29.95S
MANITOWOC      MOCLDY    54  50  86 W7        29.97S
APPLETON       MOCLDY    50  46  87 W10       29.96S
CLINTONVILLE   CLOUDY    52  46  82 W10       29.95S
OSHKOSH        CLEAR     52  47  83 W8        29.98S
$$

WIZ032>034-041-042-053>061-251100-
SOUTHWEST WISCONSIN

CITY           SKY/WX    TMP DP  RH WIND       PRES   REMARKS
LA CROSSE      CLEAR     58  49  72 W7        30.06R
SPARTA         CLEAR     42  42  99 CALM      30.06S
VIROQUA        CLEAR     48  47  99 W8        30.06F
BOSCOBEL       CLEAR     50  48  93 S3        30.08S
PRAIRIE DU CHI CLEAR     51  45  78 NW5       30.09S
PLATTEVILLE    CLEAR     50  49  99 W6        30.09R
$$

WIZ056-057-062-063-064-067-068-251100-
SOUTH CENTRAL WISCONSIN

CITY           SKY/WX    TMP DP  RH WIND       PRES   REMARKS
REEDSBURG      CLEAR     50  48  95 SW3       30.05R
BARABOO/DELLS  CLEAR     48  46  90 SW3       30.04S
LONE ROCK      CLEAR     51  48  89 W8        30.07R
MINERAL POINT  CLEAR     50  50 100 W6        30.08R
MADISON        CLEAR     51  48  89 W5        30.04R
MIDDLETON      CLEAR     50  50  98 W8        30.05S
WATERTOWN      CLEAR     50  50 100 W5        30.03R
MONROE         CLEAR     50  46  87 W12       30.07S
JANESVILLE     CLEAR     52  52 100 W7        30.05S
$$

WIZ051-052-058>065-066-070>072-251100-
SOUTHEAST WISCONSIN

CITY           SKY/WX    TMP DP  RH WIND       PRES   REMARKS
MILWAUKEE      CLEAR     54  49  83 W7        30.02S
WAUKESHA       CLEAR     48  46  93 W8        30.03S
MILWAUKEE/TIMM CLEAR     50  45  81 W7        30.03R
RACINE         CLEAR     52  48  86 W7        30.04R
KENOSHA        CLEAR     50  47  89 W7        30.04R
FOND DU LAC    CLOUDY    52  46  80 SW6       30.00S
SHEBOYGAN      CLOUDY    53  48  83 W9        29.98S
WEST BEND      CLEAR     50  46  87 W8        30.00S
JUNEAU         CLEAR     47  46  94 SW3       30.04R
$$

LSZ147-162-251100-
LAKE SUPERIOR

STATION/POSITION TIME  TEMP    WIND        PRES    WAVE
                       AIR SEA DIR/SP/G            HT/PER
                 (UTC) (F)     (DEG/KT/KT) (MB)    (FT/S)
W MID LAKE BUOY  0950   43 39  270/  4/  4 1014.7R   0
DEVILS ISLAND    1000   53     330/  9/ 10 1015.1R
SAXON HARBOR     0930   54     180/  3/  4 1014.6S
$$

LMZ867-665-643>646-251100-
LAKE MICHIGAN

STATION/POSITION TIME  TEMP    WIND        PRES    WAVE
                       AIR SEA DIR/SP/G            HT/PER
                 (UTC) (F)     (DEG/KT/KT) (MB)    (FT/S)
CHAMBERS ISLAND  0930   55     240/  2/  5 1012.2F
S GREEN BAY BUOY 1000   56     240/ 16/ 17 1012.9
N MID LAKE BUOY  0950   55 56  340/  4/  6 1013.3R   1/ 3
NORTHPORT PIER   0930   56     290/  6/ 10 1012.9S
KEWAUNEE LAKESHO 0954   53     240/  4/  8 1013.4F
SHEBOYGAN LAKESH 1000   54     260/ 12/ 15 1014.9S
PORT WASHINGTON  0940   54     280/  7/ 10 1016.6S
ATWATER BUOY     0809   56 58  260/ 14/ 16 1016.2S
MILWAUKEE LAKESH 0950   55     280/ 12/ 14   N/A
S MID LAKE BUOY  0950   57 61  310/ 16/ 19 1016.1R   3/ 5
KENOSHA   LAKESH 1000   54     260/ 10/ 13 1016.9
$$

TC  - TEMPERATURE IN CELSIUS
VSB - VISIBILITY IN STATUTE MILES
WCI - WIND CHILL INDEX
HX  - HEAT INDEX





USA.gov is the U.S. government's official web portal to all federal, state and local government web resources and services.